Tracking 23731 objects as of 27-Sep-2021
HD Live streaming from Space Station
objects crossing your sky now

STARLINK-2394

Track STARLINK-2394 now!
10-day predictions
STARLINK-2394 is classified as:


NORAD ID: 47813
Int'l Code: 2021-018AC
Perigee: 554.0 km
Apogee: 554.8 km
Inclination: 53.1 °
Period: 95.6 minutes
Semi major axis: 6925 km
RCS: Unknown
Launch date: March 11, 2021
Source: United States (US)
Launch site: AIR FORCE EASTERN TEST RANGE (AFETR)
aabbcc
Your satellite tracking list
Your tracking list is empty




NASA's NSSDC Master Catalog

Two Line Element Set (TLE):
1 47813U 21018AC  21269.42825983  .00000363  00000-0  43229-4 0  9992
2 47813  53.0573 327.6946 0000607 141.7265 218.3767 15.06390776 31567
Source of the keplerian elements: AFSPC